Regional Weather Roundup
Issued by NWS

Home | Current Version | Previous Version | Graphics & Text | Print | Product List | Glossary On
Versions: 1 2 3 4 5 6 7 8 9 10 11 12 13 14 15 16 17 18 19 20 21 22 23 24 25 26 27 28 29 30 31 32 33 34 35 36 37 38 39 40 41 42 43 44 45 46 47 48 49 50
000
ASUS45 KABQ 242010
RWRNM
NEW MEXICO REGIONAL WEATHER ROUNDUP
NATIONAL WEATHER SERVICE ALBUQUERQUE NM
200 PM MDT SAT JUN 24 2017

NOTE: "FAIR" MEANS FEW OR NO CLOUDS BELOW 12,000 FEET AGL WITH NO
       SIGNIFICANT WEATHER OR OBSTRUCTIONS TO VISION.

      THIS PRODUCT IS RELEASED AS TWO VERSIONS.  ONE VERSION NEAR
      THE TOP OF THE HOUR CONTAINING PRELIMINARY DATA FROM ALBUQUERQUE
      AND OTHER STATIONS.  A FINAL VERSION WITH ADDITIONAL DATA IS
      ISSUED ABOUT 10 MINUTES AFTER THE HOUR.

NMZ501-503-504-510>518-242100-
NORTHWEST PLATEAU/NORTHCENTRAL MOUNTAINS

CITY           SKY/WX    TMP DP  RH WIND       PRES   REMARKS
FARMINGTON     FAIR      91  32  12 CALM      30.14F
LOS ALAMOS     FAIR      74  48  39 S12G23    30.34F
SANTA FE       FAIR      80  51  36 SE18G28   30.29F
TAOS           FAIR      79  46  31 SW10G18     N/A
ANGEL FIRE     FAIR      70  49  47 S17G25    30.39F

$$
NMZ402-403-502-505>509-242100-
WESTCENTRAL MOUNTAINS/SOUTHWEST MOUNTAINS

CITY           SKY/WX    TMP DP  RH WIND       PRES   REMARKS
GALLUP         FAIR      93  28  10 W8G20     30.21F
GRANTS         FAIR      83  46  27 SE13      30.28S
SILVER CITY    FAIR      93  49  22 S14G25    30.18F

$$
NMZ407-409-411-412-242100-
SOUTHERN DESERTS

CITY           SKY/WX    TMP DP  RH WIND       PRES   REMARKS
DEMING         FAIR      97  51  21 SE13      30.08F
LAS CRUCES     FAIR      94  48  20 SE18G26   30.14F
HOLLOMAN AFB   FAIR      93  50  23 S14G21    30.11F
ALAMOGORDO     FAIR      93  48  21 SW13G21   30.12F
T OR C         FAIR      94  51  23 VRB5G17   30.11F

$$
NMZ519>523-242100-
CENTRAL VALLEYS/CENTRAL HIGHLANDS

CITY           SKY/WX    TMP DP  RH WIND       PRES   REMARKS
ALBUQUERQUE    CLOUDY    85  52  32 S10       30.20F
DOUBLE EAGLE   MOSUNNY   84  54  34 SE9G17    30.24F
MORIARTY ARPT  FAIR      79  49  34 S15       30.32F
CLINES CORNERS FAIR      72  48  42 SE15G22   30.38F
BELEN          FAIR      88  48  24 SE14      30.18F
SOCORRO        FAIR      92  49  22 E10       30.14F

$$
NMZ524>526-539-540-242100-
SOUTHCENTRAL MOUNTAINS

CITY           SKY/WX    TMP DP  RH WIND       PRES   REMARKS
RUIDOSO        FAIR      68  50  52 SE13G21   30.39F

$$
NMZ527>531-242100-
NORTHEAST HIGHLANDS/NORTHEAST PLAINS

CITY           SKY/WX    TMP DP  RH WIND       PRES   REMARKS
LAS VEGAS      FAIR      70  46  42 SE18G26   30.38F
RATON          CLOUDY    69  46  43 S15       30.34F
CLAYTON        CLOUDY    66  49  54 S16G24    30.32F

$$
NMZ532>537-242100-
EASTCENTRAL PLAINS

CITY           SKY/WX    TMP DP  RH WIND       PRES   REMARKS
SANTA ROSA     CLOUDY    72  52  48 SE8G22    30.29F
TUCUMCARI      CLOUDY    70  55  59 SE6       30.26F
CANNON AFB     CLOUDY    73  59  60 SE9       30.29F
CLOVIS AIRPORT CLOUDY    70  57  63 SE8       30.30F

$$
NMZ028-029-538-242100-
SOUTHEAST PLAINS

CITY           SKY/WX    TMP DP  RH WIND       PRES   REMARKS
ROSWELL        PTSUNNY   81  55  40 SE12G18   30.22F
ARTESIA        CLOUDY    81  57  44 SE12G17   30.22F
CARLSBAD       CLOUDY    81  61  50 SE6       30.19F
HOBBS          PTSUNNY   75  61  60 E9G18     30.25F


$$




USA.gov is the U.S. government's official web portal to all federal, state and local government web resources and services.